Regional Weather Roundup
Issued by NWS Wakefield, VA

Home | Current Version | Previous Version | Graphics & Text | Print | Product List | Glossary On
Versions: 1 2 3 4 5 6 7 8 9 10 11 12 13 14 15 16 17 18 19 20 21 22 23 24 25 26 27
000
ASUS41 KAKQ 182113
RWRAKQ

REGIONAL WEATHER ROUNDUP
NATIONAL WEATHER SERVICE WAKEFIELD VA
400 PM EST SAT NOV 18 2017

Note: "fair" indicates few or no clouds below 12,000 feet with no
significant weather and/or obstructions to visibility. * = Denotes
station may not report precipitation (e.g., rain,snow,etc.),
thunder or fog.

VAZ042-051-052>054-056-182200-
NORTHERN VIRGINIA

CITY           SKY/WX    TMP DP  RH WIND       PRES   REMARKS
WASH NATIONAL  LGT RAIN  54  45  71 S10       29.63F
DULLES         CLOUDY    56  40  55 S8        29.61F
FORT BELVOIR   CLOUDY    57  40  52 SE6       29.63F
QUANTICO       NOT AVBL
FREDERICKSBRG* CLOUDY    62  42  48 S12       29.63F
STAFFORD*      PTCLDY    59  40  48 S7        29.67F
WARRENTON      NOT AVBL
CULPEPER*      MOCLDY    62  39  43 S8        29.61F
MANASSAS*      PTCLDY    56  41  57 S10       29.61F
LEESBURG*      CLOUDY    54  45  71 S8        29.60F
WINCHESTER     CLOUDY    41  36  81 CALM      29.56F
FRONT ROYAL*   CLOUDY    45  37  76 N5        29.55F
LURAY*         CLOUDY    57  37  47 SW8       29.56F
$$

VAZ048-049-060>072-079>083-182200-
CENTRAL AND SOUTH CENTRAL VIRGINIA

CITY           SKY/WX    TMP DP  RH WIND       PRES   REMARKS
RICHMOND       MOCLDY    60  43  53 SW15G23   29.69F
CHESTERFIELD*  NOT AVBL
PETERSBURG*    CLOUDY    62  10  13 S9        29.70F
HANOVER        MOCLDY    63  43  48 SW16G25   29.69S
TAPPAHANNOCK*    N/A    N/A N/A N/A MISG        N/A
QUINTON*       FAIR      63  44  49 S9G22     29.69F
CHARLOTTSVILLE CLOUDY    63  42  46 S18G29    29.60F
GORDONSVILLE*  PTCLDY    62  44  51 S13G20    29.61F
ORANGE*        PTCLDY    61  41  48 S12G17    29.61F
LOUISA*          N/A     62  41  45 S12G24      N/A
BUMPASS*       FAIR      62  38  41 SW10G20   29.65S
FARMVILLE*     PTCLDY    64  47  52 SW10G16   29.67S
CREWE*         FAIR      62  46  55 S6        29.69S
FORT PICKETT*  NOT AVBL
CHASE CITY*    FAIR      64  45  49 S6        29.72R
CLARKSVILLE*   FAIR      64  46  52 SW8G26    29.72S
SOUTH HILL*    CLOUDY    64  49  60 S13G24    29.78F
LAWRENCEVILLE* FAIR      63  45  52 S9G18     29.72F
EMPORIA*       CLOUDY    63  46  55 S10G28    29.75F
$$

VAZ088>098-182200-
SOUTHEAST VIRGINIA

CITY           SKY/WX    TMP DP  RH WIND       PRES   REMARKS
NORFOLK        CLOUDY    64  48  56 SW17G26   29.76S
VIRGINIA BEACH CLOUDY    64  47  53 S18G24    29.76F
NORFOLK NAVAL  CLOUDY    64  47  53 S10G18    29.77F
WEST POINT*    PTCLDY    61  41  48 S8        29.71F
SALUDA*        FAIR      60  44  55 S8G16     29.70F
NEWPORT NEWS   PTCLDY    62  47  57 S16       29.73F
LANGLEY AFB    CLOUDY    63  48  58 S16       29.74F
FORT EUSTIS    CLOUDY    62  48  60 S10       29.70F
WILLIAMSBURG*  PTCLDY    64  46  52 S9G20     29.73F
HR EXEC AP*    NOT AVBL
FRANKLIN*      CLOUDY    64  48  57 S9        29.76F
US460-WAKEFLD  PTCLDY    63  47  55 S8G17     29.72F
$$

VAZ020-022-025-037-045-182200-
WEST CENTRAL AND SOUTHWEST VIRGINIA

CITY           SKY/WX    TMP DP  RH WIND       PRES   REMARKS
STAUNTON*      CLOUDY    58  38  47 S10       29.61F
WAYNESBORO*    MOCLDY    58  40  50 S13G21    29.60F
HOT SPRINGS VA CLOUDY    53  33  47 SW13G20   29.64F
LYNCHBURG      CLOUDY    61  43  51 SW15G29   29.67F
DANVILLE       CLOUDY    63  46  54 SW20G28   29.73S
SOUTH BOSTON*  FAIR      64  44  47 SW17G26   29.72R
MARTINSVILLE   CLOUDY    60  45  56 SW6       29.74F
ROANOKE        CLOUDY    62  45  53 S8        29.67F
BLACKSBURG     CLOUDY    58  46  62 S9        29.70F
DUBLIN*        CLOUDY    60  46  59 S13G23    29.68F
MARION*        CLOUDY    61  41  47 W3        29.69F
HILLSVILLE*    MOSUNNY   55  45  69 S13G20    29.70F
RICHLANDS*     CLOUDY    57  10  15 SW10G18   29.66F
WISE*          CLOUDY    54  50  87 S18G25    29.64F
ABINGDON*      CLOUDY    62  46  55 W6        29.67F
$$

MDZ021>025-VAZ099-100-182200-
SOUTHERN MARYLAND AND THE DELMARVA PENINSULA

CITY           SKY/WX    TMP DP  RH WIND       PRES   REMARKS
PATUXENT RIVER NOT AVBL
BAY BRIDGE APT CLOUDY    57  41  54 S12G20    29.65F
LEONARDTOWN    CLOUDY    55  37  50 S7        29.68F
DOVER          CLOUDY    56  49  78 S20G29    29.65F
GEORGETOWN     CLOUDY    60  34  37 SW20G31   29.69F
EASTON         PTCLDY    57  41  54 S14       29.70F
CAMBRIDGE      CLEAR     55  45  67 S9        29.69S
SALISBURY      CLOUDY    57  42  57 S13       29.69F
OCEAN CITY     MOCLDY    57  50  77 SW15G24   29.73F
WALLOPS ISLAND PTCLDY    57  51  80 S17G25    29.72F
ACCOMACK*      CLOUDY    59  49  69 S12       29.72F
$$

NCZ012>017-030>032-182200-
NORTH CENTRAL AND EASTERN NORTH CAROLINA

CITY           SKY/WX    TMP DP  RH WIND       PRES   REMARKS
ROANOKE RAPIDS   N/A    N/A N/A N/A MISG        N/A
RALEIGH        CLOUDY    65  50  58 SW18      29.77F
ELIZABETH CITY CLOUDY    64  53  67 S12       29.80F
AHOSKIE*       CLOUDY    65  50  58 S6        29.79F
EDENTON*       CLOUDY    68  54  60 S15       29.82S
CURRITUCK*     CLOUDY    63  51  64 S7G16     29.81S
KILL DEVIL HLS CLOUDY    61  47  61 S9        29.82F
MANTEO         CLOUDY    63  49  61 SW22G29   29.84F
CAPE HATTERAS  CLEAR     65  60  84 S10       29.87F
TARBORO*       NOT AVBL
GOLDSBORO      MOSUNNY   69  52  55 S13G23    29.80S
WASHINGTON     MOCLDY    68  52  56 S8G18     29.82F
GREENVILLE     MOSUNNY   68  52  56 SW14G23   29.84S
NEW BERN       CLOUDY    65  52  62 S12G21    29.86F
WILMINGTON     MOSUNNY   68  57  68 S9        29.86F
$$

VAZ048-182200-
ELSEWHERE

CITY           SKY/WX    TMP DP  RH WIND       PRES   REMARKS
HARRISBURG PA  LGT RAIN  42  42 100 SE5       29.62F FOG
BALTIMORE      CLOUDY    57  39  51 S6        29.63F
ANNAPOLIS      NOT AVBL
ANDREWS AFB    MOCLDY    54  41  62 S12       29.63F
PHILADELPHIA   CLOUDY    54  38  54 S8        29.65F
HENDERSON NC   CLOUDY    62  46  57 S16G26    29.73F
GREENSBORO     CLOUDY    62  46  55 SW18G33   29.75F
ROCKY MOUNT    MOSUNNY   66  52  60 S16G24    29.79F
$$

VAZ100-182200-
MARINE

STATION/POSITION TIME  TEMP    WIND        PRES    WAVE   SWELL
                       AIR SEA DIR/SP/G            HT/PER HT/PER
                 (UTC) (F)     (DEG/KT/KT) (MB)    (FT/S) (FT/S)
15NM E FENWICK I 2050   60 59  190/ 25/ 29 1005.9F   7/ 7   2/10
THOMAS POINT MD  2100   56 54  180/ 17/ 18   N/A
CAPE HENRY BUOY  2100      59                N/A     4/ 5
CAPE CHARLES BUO 2051      58                N/A     4/ 5
64NM E OF VA BCH 2050   63 62  200/ 19/ 23 1009.9F   5/ 5   2/11
44100 DUCK FRF   2045      62                N/A     3/ 4
44056 DUCK FRF   2100      60                N/A     2/11   2/11
DIAMOND SHLS NC  2050   70 66  200/ 21/ 27 1011.9F   4/ 9   2/ 9
CAPE LOOKOUT NC  2100   67     190/ 11/ 13 1011.7F
$$




USA.gov is the U.S. government's official web portal to all federal, state and local government web resources and services.